Location: Alladorf
(49.9620°N, 11.3790°E)
Time: 20:08:06
(UTC+00:00)

NOSS 3-4 (C) - Pass Details

Date: 29 November 2020
Orbit: 878 x 1334 km, 63.4° (Epoch: 22 January)

Event Time Altitude Azimuth Distance (km) Brightness Sun altitude
Exits shadow 04:00:59 46° 209° (SSW) 1,207 3.7 -26.2°
Maximum altitude 04:02:52 80° 130° (SE) 941 3.4 -25.8°
Drops below altitude 10° 04:09:14 10° 44° (NE) 2,752 6.3 -24.8°
Sets 04:11:57 0° 44° (NE) 3,768 7.1 -24.4°
